Location: Newark
(25.4800°N, 85.7200°E)
Time: 08:36:18
(UTC+00:00)

Transit 4A - Pass Details

Date: 01 September 2019
Orbit: 865 x 979 km, 66.8° (Epoch: 24 September)

Event Time Altitude Azimuth Distance (km) Brightness Sun altitude
Rises 19:47:39 0° 335° (NNW) 3,571 - -49.8°
Reaches altitude 10° 19:50:12 10° 335° (NNW) 2,608 - -49.5°
Maximum altitude 19:56:15 83° 248° (WSW) 905 - -48.6°
Drops below altitude 10° 20:02:06 10° 161° (SSE) 2,526 - -47.8°
Sets 20:04:33 0° 160° (SSE) 3,451 - -47.4°
